Погода в Аргамакове

Россия / Пензенская область     53°05′46″N   43°42′47″E
темп.,
°C
ветер,
м/с
пор.,
м/с
влажн.,
%
обл.,
%
осадки,
мм/ч
давл.,
гПа
погр.,
м
20 апреля, вт
вт2000:00+6в81380100 0.1 1020847
03:00+5в71387100 0.8 1020710
06:00+3в71489100 1.0 1021720
09:00+3вюв81586100 1.4 1021726
12:00+3вюв91683100 0.4 1020791
15:00+3вюв101783100 2.6 1019790
18:00+3вюв102086100 1.9 1016834
21:00+5вюв132291100 10.8 1013990
21 апреля, ср
ср2100:00+6юв132491100 8.6 10091150
03:00+7юв112092100 9.3 1009974
06:00+7юв122089100 0.1 1009800
09:00+7юв111793100 0.3 1009865
12:00+9ююв91588100 0.6 10101289
15:00+8ююз81291100 0.8 1012920
18:00+9ююз6118295 0.1 1014676
21:00+8ююз41090100 0.2 1016409
22 апреля, чт
чт2200:00+6ю379441 0.0 1017145
03:00+5ю49935 0.0 1018185
06:00+6ююз3991100 0.0 1019233
09:00+9ююз478077 0.2 1020500
12:00+12юз686561 1.1 10201331
15:00+13зюз5851100 1.8 10202088
18:00+11з236661 0.0 1021107
21:00+9ю11726 0.0 102210
23 апреля, пт
пт2300:00+8юв3575100 0.0 102282
03:00+8ю367575 0.0 1022101
06:00+8ю3779100 0.0 1022166
09:00+11ю366755 0.0 1022305
12:00+16ююз454764 0.1 10211810
15:00+15ююв345198 0.1 1020579
18:00+14ююв47575 0.1 1020258
21:00+10юв36745 0.1 101990
24 апреля, сб
сб2400:00+8ююв34805 0.0 101956
03:00+7юв34855 0.0 101745
06:00+7юв38895 0.0 1016183
09:00+12ююв57665 0.0 1015635
12:00+15ююв675495 1.7 10121473
15:00+16ююз6949100 3.8 10102163
18:00+11з6981100 0.7 1010486
21:00+7з5792100 1.9 1010621